Showing default

HAMMER, 59148

Orbit data source: Space-Track

HAMMER, 59148 is a payload satellite owned by Open Cosmos (ES) in SSO that was launched on Mon, 04 Mar 2024 UTC via an FALCON 9 launch vehicle from the Air Force Western Test Range (AFWTR). Payload-class satellites include a variety of spacecraft equipped with specific instruments for various scientific and technological missions. These include communications satellites like Starlink; space stations such as the ISS; scientific satellites like the Hubble; Earth observation satellites from companies like Planet Labs, Umbra, and HawkEye 360; GPS; miniature CubeSats for education and research; and military/defense satellites.

Loading next visibility...
Identifier
59148, 2024-043BC
Orbit
SSO
Last TLE update
8 hours ago
Origin
Manufacturer
Open Cosmos
Mission
Operational Commercial Com/MetRO
Bus & Motor
CUBESAT 6U, Unknown motor
Mass
~10 kg wet, ~10 kg dry
Launch date (UTC)
2024-03-04 (1 year ago)
Launch vehicle
FALCON 9
Launch site
Air Force Western Test Range (AFWTR)
Object type
Payload
Rocket body
Debris
Shape & HBR
Box + 2 Pan, 1 m
Radar Cross Section
0.063 m², Medium (>0.1 m² and < 1m²)

Expand to show TLE details & history

TLE from 8 hours ago
0 HAMMER
1 59148U 24043BC  25182.41710234  .00010014  00000-0  29347-3 0  9994
2 59148  97.5112 314.8719 0008391  10.2216 349.9196 15.35375649 73740
Epoch: 2025-07-01T10:00Z
TLE epoch observation values (Epoch: 2025-07-01T10:00:37.642Z)
Latitude
-0.00003°
Longitude
-114.9978°
Altitude
457.263 km
Speed
7.641 km/s
True Right ascension
20h 59m 29s
True Declination
0° 00' 00"
Sunlit
Object was in full shadow at epoch
Visualization orbit readout
Latitude
-6.95933°
Longitude
-113.74993°
Altitude
458.54 km
Speed
7.64 km/s
Apparent Right ascension
19h 34m 59s
Apparent Declination
-25° 07' 12"
Sunlit
Object is in full shadow
Visualization observer readout
Local Sidereal Time
05:27:42
Azimuth
289.394° WNW
Elevation
-59.594°
Doppler factor
1
Orbital elements
Apogee altitude
462.49 km
Perigee altitude
451.02 km
Semi-major axis
6,834.892 km
Eccentricity
0.00084
Inclination
97.5112°
RAAN
314.8719°
Arg. of periapsis
10.2216°
True anomaly
Unknown
Mean anomaly
349.9196°
Eccentric anomaly
Unknown
Mean motion
3.84101 °/min
Orbital period
93.73 mins
BSTAR
0.00029347
Loading maneuver chart data...
Loading SW <> Apogee altitude chart data...
Loading historical data...
Loading historical data...
Loading historical data...
Loading historical data...
Loading historical data...
Loading historical data...
Loading historical data...

HAMMER Visibility forecast

Observer location: undefined°, undefined°

Span
Click to sort rows by Start time (UTC) header in descending order
Start Az.
Max El. time (UTC)
Max El. Az.
Max El.
End time (UTC)
End Az.
6 mins2025-07-01 21:31:03.240Z21.481° NNE2025-07-01 21:34:03.240Z101.379° ESE40.463°2025-07-01 21:37:03.240Z179.802° S
4 mins2025-07-02 09:37:03.240Z229.716° WSW2025-07-02 09:38:03.240Z252.787° W20.053°2025-07-02 09:41:03.240Z315.77° NNW
|